Regional Weather Roundup
Issued by NWS

Home | Current Version | Previous Version | Graphics & Text | Print | Product List | Glossary On
Versions: 1 2 3 4 5 6 7 8 9 10 11 12 13 14 15 16 17 18 19 20 21 22 23 24 25 26 27 28 29 30 31 32 33 34 35 36 37 38 39 40 41 42 43 44 45 46 47 48 49 50
000
ASUS43 KLMK 232102
RWRKY
KENTUCKY REGIONAL WEATHER ROUNDUP
NATIONAL WEATHER SERVICE LOUISVILLE KY
500 PM EDT SUN JUL 23 2017

NOTE "FAIR" INDICATES FEW OR NO CLOUDS BELOW 12,000 FEET
WITH NO SIGNIFICANT WEATHER AND/OR OBSTRUCTIONS TO VISIBILITY.

KYZ001>023-026-027-061>063-070>075-232200-
WESTERN AND SOUTH CENTRAL KENTUCKY

CITY           SKY/WX    TMP DP  RH WIND       PRES   REMARKS
PADUCAH        MOSUNNY   93  70  46 VRB6      29.84S HX  99
HENDERSON      SUNNY     87  71  58 NW8       29.86S HX  93
OWENSBORO      MOSUNNY   88  72  58 NW8       29.86S HX  94
HOPKINSVILLE   MOSUNNY   91  75  59 SW9       29.83F HX 102
BOWLING GREEN  CLOUDY    91  74  57 W9        29.83F HX 100
GLASGOW        NOT AVBL
$$

KYZ024-025-028>034-038-045-046-053-232200-
NORTH CENTRAL KENTUCKY

CITY           SKY/WX    TMP DP  RH WIND       PRES   REMARKS
LOUISVILLE/SDF PTSUNNY   88  68  51 W12       29.83F HX  91
LOUISVILLE/LOU MOSUNNY   87  70  56 SW9       29.84F HX  92
FORT KNOX      SUNNY     84  72  65 W6        29.84F HX  90
$$

KYZ035>037-039>044-047>052-055>060-089>105-232200-
NORTHEAST KENTUCKY

CITY           SKY/WX    TMP DP  RH WIND       PRES   REMARKS
LEXINGTON      MOSUNNY   86  71  60 W10       29.86R HX  91
COVINGTON      MOSUNNY   84  70  62 SW12      29.81F
FRANKFORT      MOSUNNY   84  70  62 W8        29.84S
$$

KYZ054-064>069-076>088-106>120-232200-
SOUTHEAST KENTUCKY

CITY           SKY/WX    TMP DP  RH WIND       PRES   REMARKS
JACKSON        CLOUDY    84  69  60 VRB3      29.87S
LONDON         SUNNY     88  68  51 SW10      29.86F HX  91
SOMERSET       NOT AVBL
MIDDLESBORO    MOSUNNY   90  73  57 S7        29.87S HX  98
MONTICELLO     PTCLDY    90  77  65 W18       29.87S HX 103
$$





USA.gov is the U.S. government's official web portal to all federal, state and local government web resources and services.